Marion, IN

9:30 AM EDT on August 26, 2016 (GMT -0400)
Marion Municipal

Weather History for KMZZ - November, 2013

Change the Weather History Date:

Thursday, November 28, 2013

  Actual Average (KMIE) Record (KMIE)
Temperature  
Mean Temperature 26 °F 37 °F  
Max Temperature 78 °F 45 °F 69 °F (1990)
Min Temperature 19 °F 29 °F 18 °F (1967)
Degree Days  
Heating Degree Days 38 28  
Month to date heating degree days 614  
Since 1 July heating degree days 1078  
Cooling Degree Days 0 0  
Month to date cooling degree days 0  
Year to date cooling degree days 955  
Moisture  
Dew Point 14 °F    
Average Humidity 64    
Maximum Humidity 79    
Minimum Humidity 40    
Precipitation  
Precipitation 0.00 in 0.11 in 0.96 in (1983)
Month to date precipitation 3.23  
Year to date precipitation 37.02  
Sea Level Pressure  
Sea Level Pressure 30.30 in    
Wind  
Wind Speed 8 mph (SW)    
Max Wind Speed 17 mph    
Max Gust Speed 24 mph    
Visibility 10 miles    
Events      
T = Trace of Precipitation, MM = Missing Value Source: NWS Daily Summary

Daily Weather History Graph

Daily Weather History Graph

Search for Another Location

Airport or City:

Trip Planner

Search our weather history database for the weather conditions in past years. The results will help you decide how hot, cold, wet, or windy it might be!

Date:

Astronomy

Nov. 28, 2013 Rise Set
Actual Time 7:43 AM EST 5:17 PM EST
Civil Twilight 7:13 AM EST 5:47 PM EST
Nautical Twilight 6:40 AM EST 6:21 PM EST
Astronomical Twilight 6:07 AM EST 6:54 PM EST
Moon 2:44 AM EST (11/28) 2:27 PM EST (11/28)
Length of Visible Light 10h 33m
Length of Day
9h 33m
Waning Crescent, 22% of the Moon is Illuminated
Nov 28
Waning Crescent
Dec 2
New
Dec 9
First Quarter
Dec 17
Full
Dec 25
Last Quarter

Hourly Weather History & Observations

Time (EST) Temp. Windchill Dew Point Humidity Pressure Visibility Wind Dir Wind Speed Gust Speed Precip Events Conditions
12:15 AM 20.3 °F 12.5 °F 13.6 °F 75% 30.26 in 10.0 mi WSW 5.8 mph - N/A   Clear
12:35 AM 20.8 °F 13.2 °F 13.8 °F 74% 30.27 in 10.0 mi West 5.8 mph - N/A   Clear
12:55 AM 20.8 °F 12.1 °F 13.8 °F 74% 30.26 in 10.0 mi West 6.9 mph - N/A   Scattered Clouds
1:15 AM 21.2 °F 11.7 °F 14.0 °F 74% 30.26 in 10.0 mi West 8.1 mph - N/A   Mostly Cloudy
1:35 AM 21.6 °F 12.1 °F 13.8 °F 72% 30.26 in 10.0 mi West 8.1 mph - N/A   Mostly Cloudy
1:55 AM 21.4 °F 12.8 °F 13.5 °F 72% 30.26 in 10.0 mi West 6.9 mph - N/A   Scattered Clouds
2:15 AM 20.5 °F 14.0 °F 13.3 °F 74% 30.26 in 10.0 mi WSW 4.6 mph - N/A   Clear
2:35 AM 19.9 °F 14.9 °F 13.6 °F 77% 30.27 in 10.0 mi WSW 3.5 mph - N/A   Clear
2:55 AM 20.3 °F - 14.0 °F 77% 30.28 in 10.0 mi Calm Calm - N/A   Clear
3:15 AM 20.8 °F 14.4 °F 14.0 °F 75% 30.28 in 10.0 mi WSW 4.6 mph - N/A   Clear
3:35 AM 20.8 °F 13.2 °F 14.5 °F 77% 30.28 in 10.0 mi SW 5.8 mph - N/A   Mostly Cloudy
3:55 AM 21.2 °F 13.6 °F 14.7 °F 76% 30.29 in 10.0 mi SW 5.8 mph - N/A   Overcast
4:15 AM 21.4 °F 13.8 °F 14.9 °F 76% 30.29 in 10.0 mi SW 5.8 mph - N/A   Overcast
4:35 AM 21.6 °F 13.0 °F 14.7 °F 75% 30.29 in 10.0 mi SW 6.9 mph - N/A   Overcast
4:55 AM 21.9 °F 15.7 °F 14.5 °F 73% 30.29 in 10.0 mi SW 4.6 mph - N/A   Overcast
5:15 AM 22.1 °F 12.8 °F 14.9 °F 74% 30.29 in 10.0 mi SW 8.1 mph - N/A   Overcast
5:35 AM 22.1 °F 13.7 °F 14.9 °F 74% 30.29 in 10.0 mi SSW 6.9 mph - N/A   Overcast
5:55 AM 22.1 °F 12.8 °F 15.1 °F 74% 30.30 in 10.0 mi SSW 8.1 mph - N/A   Overcast
6:15 AM 22.1 °F 12.0 °F 15.1 °F 74% 30.30 in 10.0 mi SW 9.2 mph - N/A   Overcast
6:35 AM 22.5 °F 13.2 °F 14.9 °F 73% 30.31 in 10.0 mi SW 8.1 mph - N/A   Overcast
6:55 AM 22.6 °F 13.4 °F 14.9 °F 72% 30.31 in 10.0 mi SW 8.1 mph - N/A   Overcast
7:15 AM 22.8 °F 13.6 °F 14.7 °F 71% 30.31 in 10.0 mi SSW 8.1 mph - N/A   Overcast
7:35 AM 23.0 °F 13.1 °F 14.7 °F 71% 30.31 in 10.0 mi SSW 9.2 mph - N/A   Overcast
7:55 AM 22.8 °F 14.5 °F 14.5 °F 71% 30.31 in 10.0 mi SSW 6.9 mph - N/A   Overcast
8:15 AM 23.0 °F 13.1 °F 14.7 °F 71% 30.32 in 10.0 mi South 9.2 mph - N/A   Overcast
8:35 AM 23.0 °F 11.7 °F 14.5 °F 70% 30.32 in 10.0 mi South 11.5 mph - N/A   Overcast
8:55 AM 23.7 °F 11.5 °F 14.2 °F 67% 30.31 in 10.0 mi South 13.8 mph - N/A   Overcast
9:15 AM 23.9 °F 11.2 °F 13.1 °F 63% 30.31 in 10.0 mi SSW 15.0 mph - N/A   Overcast
9:35 AM 24.4 °F 12.4 °F 12.6 °F 61% 30.31 in 10.0 mi SSW 13.8 mph 18.4 mph N/A   Overcast
9:55 AM 24.8 °F 12.4 °F 12.6 °F 60% 30.31 in 10.0 mi SSW 15.0 mph - N/A   Overcast
10:15 AM 25.0 °F 12.2 °F 11.7 °F 57% 30.31 in 10.0 mi SSW 16.1 mph - N/A   Overcast
10:35 AM 25.3 °F 12.2 °F 11.5 °F 56% 30.31 in 10.0 mi SSW 17.3 mph 23.0 mph N/A   Overcast
10:55 AM 25.9 °F 12.9 °F 11.3 °F 54% 30.30 in 10.0 mi SSW 17.3 mph 24.2 mph N/A   Overcast
11:15 AM 26.1 °F 13.1 °F 10.8 °F 52% 30.29 in 10.0 mi SSW 17.3 mph - N/A   Overcast
11:35 AM 26.6 °F 15.2 °F 10.8 °F 51% 30.28 in 10.0 mi SSW 13.8 mph - N/A   Overcast
11:55 AM 27.5 °F 15.4 °F 11.1 °F 50% 30.27 in 10.0 mi SSW 16.1 mph 19.6 mph N/A   Overcast
12:15 PM 28.2 °F 17.2 °F 11.5 °F 50% 30.26 in 10.0 mi SSW 13.8 mph - N/A   Overcast
12:35 PM 29.1 °F 17.5 °F 10.9 °F 47% 30.26 in 10.0 mi SSW 16.1 mph 20.7 mph N/A   Overcast
12:55 PM 29.7 °F 18.2 °F 11.3 °F 46% 30.25 in 10.0 mi South 16.1 mph 21.9 mph N/A   Overcast
1:15 PM 30.7 °F 20.4 °F 11.3 °F 44% 30.24 in 10.0 mi SSW 13.8 mph 18.4 mph N/A   Overcast
1:35 PM 31.3 °F 21.1 °F 11.7 °F 44% 30.23 in 10.0 mi SSW 13.8 mph - N/A   Overcast
1:55 PM 31.8 °F 21.4 °F 11.5 °F 43% 30.22 in 7.0 mi SW 15.0 mph - N/A   Overcast
2:15 PM 32.9 °F 22.4 °F 12.0 °F 42% 30.22 in 10.0 mi SSW 16.1 mph - N/A   Overcast
2:35 PM 33.3 °F 24.1 °F 12.0 °F 41% 30.22 in 10.0 mi SW 12.7 mph - N/A   Scattered Clouds
2:55 PM 33.4 °F 23.1 °F 11.5 °F 40% 30.23 in 10.0 mi SW 16.1 mph - N/A   Clear
3:15 PM 33.4 °F 23.1 °F 11.8 °F 41% 30.23 in 10.0 mi SW 16.1 mph - N/A   Clear
3:35 PM 33.8 °F 23.2 °F 12.4 °F 41% 30.24 in 10.0 mi WSW 17.3 mph 21.9 mph N/A   Clear
3:55 PM 34.0 °F 24.2 °F 13.1 °F 42% 30.24 in 10.0 mi WSW 15.0 mph 21.9 mph N/A   Clear
4:15 PM 33.8 °F 23.9 °F 13.5 °F 43% 30.25 in 10.0 mi WSW 15.0 mph - N/A   Clear
4:35 PM 33.3 °F 22.8 °F 14.0 °F 45% 30.26 in 7.0 mi WSW 16.1 mph - N/A   Clear
4:55 PM 32.4 °F 23.5 °F 15.4 °F 50% 30.28 in 10.0 mi WSW 11.5 mph - N/A   Clear
5:15 PM 31.8 °F 23.9 °F 15.6 °F 51% 30.29 in 10.0 mi WSW 9.2 mph - N/A   Clear
5:35 PM 30.4 °F 23.6 °F 16.0 °F 55% 30.30 in 10.0 mi WSW 6.9 mph - N/A   Clear
5:55 PM 28.8 °F 21.7 °F 16.7 °F 61% 30.31 in 10.0 mi SW 6.9 mph - N/A   Clear
6:15 PM 27.7 °F 21.3 °F 16.9 °F 64% 30.32 in 10.0 mi SW 5.8 mph - N/A   Clear
6:35 PM 27.3 °F 20.9 °F 16.7 °F 64% 30.33 in 10.0 mi SW 5.8 mph - N/A   Clear
6:55 PM 27.1 °F 21.8 °F 16.5 °F 64% 30.34 in 10.0 mi SW 4.6 mph - N/A   Scattered Clouds
7:15 PM 27.0 °F 21.6 °F 16.9 °F 66% 30.34 in 10.0 mi SW 4.6 mph - N/A   Mostly Cloudy
7:35 PM 27.1 °F 20.7 °F 18.5 °F 70% 30.35 in 10.0 mi SW 5.8 mph - N/A   Overcast
7:55 PM 28.9 °F 21.9 °F 19.0 °F 67% 30.35 in 10.0 mi WSW 6.9 mph - N/A   Overcast
8:15 PM 29.3 °F 24.3 °F 19.0 °F 66% 30.36 in 10.0 mi WSW 4.6 mph - N/A   Overcast
8:35 PM 28.0 °F 22.8 °F 19.0 °F 69% 30.36 in 10.0 mi West 4.6 mph - N/A   Mostly Cloudy
8:55 PM 26.4 °F 18.0 °F 18.3 °F 71% 30.37 in 10.0 mi West 8.1 mph - N/A   Clear
9:15 PM 25.0 °F 17.1 °F 17.8 °F 74% 30.38 in 10.0 mi West 6.9 mph - N/A   Clear
9:35 PM 23.9 °F 15.8 °F 17.6 °F 77% 30.38 in 10.0 mi West 6.9 mph - N/A   Clear
9:55 PM 22.8 °F 16.7 °F 17.1 °F 79% 30.39 in 10.0 mi WNW 4.6 mph - N/A   Clear
10:15 PM 22.6 °F 14.3 °F 16.9 °F 79% 30.39 in 10.0 mi WNW 6.9 mph - N/A   Clear
10:35 PM 23.2 °F 17.2 °F 17.1 °F 77% 30.39 in 10.0 mi WNW 4.6 mph - N/A   Clear
10:55 PM 23.2 °F 16.0 °F 16.7 °F 76% 30.40 in 10.0 mi NW 5.8 mph - N/A   Clear
11:15 PM 23.5 °F 19.1 °F 16.5 °F 75% 30.41 in 10.0 mi WNW 3.5 mph - N/A   Clear
11:35 PM 22.5 °F 16.3 °F 16.0 °F 76% 30.42 in 7.0 mi WNW 4.6 mph - N/A   Clear
11:55 PM 21.4 °F - 15.6 °F 78% 30.43 in 10.0 mi Calm Calm - N/A   Clear